Flag for Uzbekistan Weather past 2 weeks in Tashkent, Uzbekistan

81 °F


Feels Like: 79 °F
Forecast: 60 / 75 °F
Wind: 5 mph from North

Location: Tashkent

Current Time: Oct 9, 2015 at 10:25:02 AM

Latest Report: Oct 9, 2015 at 9:30 AM

Visibility: 4 mi

Pressure: 29.89 "Hg

Humidity: 28%

Dew point: 45 °F

Location of TashkentLocation

Historic Weather in Tashkent — Graph


Tashkent temperature yesterday

Maximum temperature yesterday: 95 °F (at 12:30 PM)
Minimum temperature yesterday: 64 °F (at 12:00 AM)
Average temperature yesterday: 78 °F

Past Weeks' High & Low Weather Summary

High95 °F (Oct 8, 12:30 PM)73% (Oct 5, 4:00 AM)30.21 "Hg (Oct 5, 4:00 AM)
Low52 °F (Sep 26, 3:30 AM)13% (Sep 29, 3:00 PM)29.83 "Hg (Oct 8, 4:30 PM)
Average69 °F37%30.06 "Hg
* Reported Sep 24 9:00 AM — Oct 9 9:00 AM, Tashkent, Weather by CustomWeather, © 2015

Note: Actual official high and low records may vary slightly from our data, if they occured in-between our weather recording intervals... More about our weather records


Tashkent weather history for previous 24 hours

Time TempWeatherWind HumidityBarometerVisibility
9:00 AM
Fri, Oct 9
77 °FClear.8 mph32%29.89 "Hg4 mi
8:30 AM77 °FPassing clouds.5 mph32%29.86 "Hg4 mi
7:30 AM77 °FPassing clouds.9 mph26%29.86 "HgN/A
7:00 AM77 °FPassing clouds.12 mph26%29.83 "HgN/A
6:30 AM75 °FPassing clouds.10 mph27%29.83 "HgN/A
6:00 AM75 °FPassing clouds.10 mph27%29.83 "HgN/A
5:30 AM73 °FClear.9 mph29%29.83 "Hg10 mi
5:00 AM73 °FClear.9 mph31%29.83 "Hg2 mi
4:30 AM70 °FClear.8 mph35%29.83 "Hg10 mi
4:00 AM70 °FClear.8 mph35%29.83 "Hg10 mi
3:30 AM70 °FClear.9 mph35%29.83 "Hg10 mi
3:00 AM66 °FClear.8 mph40%29.83 "Hg10 mi
2:30 AM68 °FClear.7 mph38%29.83 "Hg10 mi
2:00 AM70 °FClear.8 mph35%29.83 "Hg10 mi
1:30 AM70 °FClear.9 mph35%29.83 "Hg10 mi
1:00 AM70 °FClear.10 mph40%29.83 "Hg10 mi
12:30 AM70 °FClear.13 mph40%29.83 "Hg10 mi
12:00 AM68 °FClear.9 mph43%29.83 "Hg10 mi
11:00 PM
Thu, Oct 8
70 °FClear.7 mph43%29.86 "Hg10 mi
10:30 PM72 °FClear.3 mph41%29.86 "Hg10 mi
10:00 PM70 °FClear.8 mph40%29.86 "Hg10 mi
9:30 PM72 °FClear.9 mph41%29.86 "Hg10 mi
9:00 PM73 °FClear.5 mph38%29.86 "Hg10 mi
8:30 PM72 °FClear.9 mph44%29.86 "Hg2 mi
8:00 PM75 °FClear.7 mph36%29.86 "Hg2 mi
7:30 PM77 °FClear.6 mph36%29.83 "Hg2 mi
7:00 PM81 °FClear.6 mph32%29.83 "Hg2 mi
6:30 PM81 °FClear.6 mph28%29.83 "Hg10 mi
6:00 PM84 °FClear.7 mph27%29.83 "Hg10 mi
5:30 PM90 °FSunny.No wind20%29.83 "Hg10 mi
5:00 PM91 °FSunny.2 mph17%29.83 "Hg10 mi
4:30 PM93 °FSunny.3 mph16%29.83 "Hg10 mi
4:00 PM93 °FSunny.8 mph15%29.86 "Hg10 mi
3:30 PM93 °FSunny.9 mph15%29.86 "Hg10 mi
3:00 PM93 °FSunny.10 mph16%29.86 "Hg10 mi
2:30 PM95 °FSunny.7 mph18%29.86 "Hg10 mi
2:00 PM95 °FClear.8 mph18%29.86 "Hg4 mi
1:30 PM95 °FClear.8 mph18%29.86 "Hg4 mi
1:00 PM95 °FClear.9 mph18%29.89 "Hg4 mi
12:30 PM95 °FClear.7 mph18%29.89 "Hg4 mi
12:00 PM93 °FClear.7 mph19%29.89 "Hg4 mi
11:30 AM90 °FPassing clouds.6 mph20%29.89 "HgN/A
11:00 AM90 °FSunny.3 mph20%29.89 "Hg10 mi
10:30 AM88 °FPassing clouds.5 mph18%29.92 "HgN/A
10:00 AM84 °FPassing clouds.6 mph20%29.92 "HgN/A
Weather by CustomWeather, © 2015

See weather overviewHow to use our weather pages